FALCON 9 R/B, 44480

Orbit data source: Space-Track

FALCON 9 R/B, 44480 is space debris in HEO originally from a launch on Tue, 06 Aug 2019 UTC launched from the Air Force Eastern Test Range (AFETR). Debris objects in space refer to the collection of defunct objects orbiting the Earth. Examples of debris include non-operational satellites, rocket bodies, and fragments generated from explosions, collisions, or faulty payload assembly.

Loading next visibility...
FALCON 9 R/B details
Identifier
44480, 2019-050B
Orbit
HEO
Last TLE update14 hours ago
Origin
Flag of USSpaceX (US)
ManufacturerSpaceX
MissionSpacecraft
Bus & MotorF9ST2, Unknown motor
Mass~4,000 kg wet, ~4,000 kg dry
Launch date (UTC)
2019-08-06 (5 years ago)
Launch vehicleUnknown
Launch site
Air Force Eastern Test Range (AFETR)
Object type
Payload
Rocket body
Debris
Shape & HBRCyl, 15.53 m
Radar Cross Section39.980 m², Large (>1 m²)

Expand to show TLE details & history

TLE from 14 hours ago
0 FALCON 9 R/B
1 44480U 19050B   24360.90383638  .00110038 -14630-6  17541-2 0  9994
2 44480  26.0640 201.3920 6133986  89.8780 335.6976  3.93335728 57445
Epoch: 2024-12-25T21:41Z
Definitive object data (Epoch: 2024-12-25T21:41:31.463Z)
Latitude-0.00004°
Longitude141.1565°
Altitude4,162.789 km
Speed7.219 km/s
True Right ascension13h 25m 42s
True Declination0° 00' 00"
Sunlit
Object was in daylight at TLE epoch
Visualization TLE readout
Latitude-21.01015°
Longitude12.35398°
Altitude14,609.91 km
Speed3.804 km/s
Apparent Right ascension03h 55m 03s
Apparent Declination-29° 33' 20"
Sunlit
Object is in daylight
Visualization observer readout
Local Sidereal Time11:01:26
Azimuth255.287° W
Elevation-30.47°
Doppler factor1
Orbital elements
Apogee altitude20,978.592 km
Perigee altitude177.063 km
Semi-major axis16,955.965 km
Eccentricity0.6133986
Inclination26.064°
RAAN201.392°
Arg. of periapsis89.878°
True anomaly270.21413°
Mean anomaly335.6976°
Eccentric anomaly308.00457°
Mean motion0.98301 °/min
BSTAR0.0017541
Orbital period366.22 mins
Loading maneuver chart data...
Loading historical data...
Loading historical data...
Loading historical data...
Loading historical data...
Loading historical data...
Loading historical data...
Loading historical data...
Other satellites on launch #50 in the year 2019 (2019-08-06 UTC)

FALCON 9 R/B Visibility forecast

Observer location: undefined°, undefined

Span
Click to sort rows by Start time (UTC) header in descending order
Start Az.
Max El. time (UTC)
Max El. Az.
Max El.
End time (UTC)
End Az.
7 mins2024-12-26 16:06:03.472Z208.917° SW2024-12-26 16:11:03.472Z188.113° SSW12.188°2024-12-26 16:13:03.472Z173.663° S
207 mins2024-12-27 05:35:03.472Z197.502° SSW2024-12-27 06:06:03.472Z185.654° SSW10.939°2024-12-27 09:02:03.472Z163.873° S
|